°ü¼¼À²Ç¥ | ºÐ·ù»ç·Ê | ¼¼À² | ¼öÃâÀÔ¿ä·É | °ü·Ã¹ý·É | ÆÇ·Ê¡¤¿¹±Ô | µµ±¸ | °Ô½ÃÆÇ English HSK
HSK ǰ¸í ±¸ºÐ ½ÃÇàÀÏ
9019.10-2000 °¡Á¤¿ë ¿ùÇ®¿åÁ¶ : T5-015, TX-135, WP-1313(1515, 1400, 1500, 1600) ǰ¸ñºÐ·ù°ú-105065 2005-07-29
9021.29-0000 Ä¡°ú¿ë ÀÓÇöõÆ®(Temporary abutment, Temporary cylinder, Healing cap) ǰ¸ñºÐ·ù°ú-105069 2005-07-29
0403.10-2000 Yogurt,frozen; Cherry Garcia ǰ¸ñºÐ·ù°ú-105048 2005-07-28
1901.90-9091 Rice flour preparation ǰ¸ñºÐ·ù°ú-105050 2005-07-28
8504.40-9099 Brushless DC Motor control driving IC ; TB6581H ǰ¸ñºÐ·ù°ú-105064 2005-07-28
2104.10-9000 Preparations for soup; ¼Õ¸À ±êµç ¹Ì¿ª±¹ ǰ¸ñºÐ·ù°ú-105056 2005-07-28
0303.79-9099 LING COLLARS NECK MEAT, FROZEN ǰ¸ñºÐ·ù°ú-105049 2005-07-28
2106.90-9099 Food preparations ǰ¸ñºÐ·ù°ú-105047 2005-07-28
8422.40-9090 Blister Packing Machine; CBP-M5 ǰ¸ñºÐ·ù°ú-105063 2005-07-28
2103.20-2000 TOMATO SAUCE; Napolitaine sauce; ½ºÆÄ°ÔƼ¼Ò½º ǰ¸ñºÐ·ù°ú-105058 2005-07-28
2103.20-2000 TOMATO SAUCES; Å丶Åä¼Ò½º ǰ¸ñºÐ·ù°ú-105059 2005-07-28
5404.10-9000 Poly buthylene terephthalate monofilament; PBT ÀÎÁ¶¸ð ǰ¸ñºÐ·ù°ú-105051 2005-07-28
3824.90-9090 Chemical preparations; Coke ǰ¸ñºÐ·ù°ú-105053 2005-07-28
2104.10-2000 Preparations for soup; ¼Õ¸À ±êµç ºÏ¾î±¹ ǰ¸ñºÐ·ù°ú-105057 2005-07-28
2104.10-9000 Preparations for soup; ¼Õ¸À ±êµç À°°³Àå ǰ¸ñºÐ·ù°ú-105060 2005-07-28
1602.49-9000 Swine preparations; ±èÄ¡ºÒ°í±â µ¤¹ä ǰ¸ñºÐ·ù°ú-105061 2005-07-28
1602.50-9000 Beef preparation; ºÒ°í±â µ¤¹ä¼Ò½º ǰ¸ñºÐ·ù°ú-105062 2005-07-28
2704.00-1010 Coal coke ǰ¸ñºÐ·ù°ú-105055 2005-07-28
2713.12-0000 Petroleum coke; Calcined; COKE(0.5~5mm) ǰ¸ñºÐ·ù°ú-105054 2005-07-28
3809.91-0000 Softening agent; HS SILICONE 77 ǰ¸ñºÐ·ù°ú-105052 2005-07-28
8538.90-9000 Connector cover ; 10320-A200-00 ǰ¸ñºÐ·ù°ú-105038 2005-07-28
8536.69-9000 Connector; 10120-6000EL ǰ¸ñºÐ·ù°ú-105039 2005-07-28
8536.69-1000 Connector ; AHKA2250BRL ǰ¸ñºÐ·ù°ú-105040 2005-07-28
3506.10-2000 Adhesives; ACF(anisotropic conductive film); CP8830IH ǰ¸ñºÐ·ù°ú-105013 2005-07-27
9031.80-9099 IC ; SX3209 ǰ¸ñºÐ·ù°ú-105000 2005-07-27
8542.29-9000 ECM(Electret Capacitor Microphone) ¸ðµâ¿ë ¨çFET/¨èPre-Amp; ¨ç RJN1167, RJN1164, RJN1163, ¨èRJN4164, RJN1464-16, RJN1464-24, RJN4163, RJN1463-16, RJN1463-24 ǰ¸ñºÐ·ù°ú-105003 2005-07-27
¢¸  661  662  663  664  665  666  667  668  669  670  ¢º

HOME £ü ÀÌ¿ë¾à°ü £ü °³ÀÎÁ¤º¸Ãë±Þ¹æÄ§ £ü µµ¿ò¸» £ü ¿ø°ÝÁö¿ø £ü ¹®Á¦ÇØ°á £ü About

[ÁÖ¼Ò] °æ±âµµ ½ÃÈï½Ã ¼­¿ï´ëÇзÎ278¹ø±æ 70 Bµ¿ 1212È£  [»ç¾÷ÀÚ] 137-10-87138  [´ëÇ¥] ¹ÚÁß±¤   clhs@clhs.co.kr   070-8802-8300   070-4214-8300